Tracking 18852 objects as of 24-Nov-2017
HD Live streaming from Space Station
objects crossing your sky now

OSCAR 30

Track OSCAR 30 now!
10-day predictions
OSCAR 30 is classified as:


NORAD ID: 15935
Int'l Code: 1985-066A
Perigee: 1,004.4 km
Apogee: 1,261.1 km
Inclination: 90.1 °
Period: 107.8 minutes
Semi major axis: 7503 km
RCS: 1.2396 m2 (large)
Launch date: August 3, 1985
Source: United States (US)
Launch site: AIR FORCE WESTERN TEST RANGE (AFWTR)
aabbcc
Your satellite tracking list
Your tracking list is empty




NASA's NSSDC Master Catalog

Two Line Element Set (TLE):
1 15935U 85066A   17327.84874550  .00000034  00000-0  42823-4 0  9999
2 15935  90.1398  52.3533 0171033  98.7502  21.8927 13.35633248571990
Source of the keplerian elements: AFSPC